This is the latest recevied weather packets stored in our database for station/object W4EDL-13. If no packets are shown the sender has not sent any weather packets the latest 1 day(s).
| Time | Temp. | Humidity | Pressure | Rain* | Wind** | Luminosity | Snow |
|---|---|---|---|---|---|---|---|
| 1778024971 | 23.89° C | 61% | 1006.3 hPa | - | 0.45 m/s, 46° | - | - |
| 1778024970 | 23.89° C | 61% | 1006.3 hPa | - | 0.45 m/s, 46° | - | - |
| 1778024369 | 24.44° C | 59% | 1006.3 hPa | - | 2.68 m/s, 147° | - | - |
| 1778023769 | 24.44° C | 58% | 1006.3 hPa | - | 0.45 m/s, 157° | - | - |
| 1778023168 | 24.44° C | 54% | 1006.3 hPa | - | 0.89 m/s, 101° | - | - |
| 1778022568 | 25° C | 50% | 1006.3 hPa | - | 1.79 m/s, 152° | - | - |
| 1778021967 | 25.56° C | 48% | 1005.9 hPa | - | 0.45 m/s, 187° | - | - |
| 1778021366 | 25.56° C | 50% | 1005.9 hPa | - | 1.34 m/s, 95° | - | - |
| 1778020766 | 25.56° C | 49% | 1006.3 hPa | - | 1.79 m/s, 133° | - | - |
| 1778020165 | 27.22° C | 47% | 1006.3 hPa | - | 0.89 m/s, 83° | - | - |
| 1778019565 | 26.67° C | 48% | 1006.3 hPa | - | 1.79 m/s, 60° | - | - |
| 1778018964 | 27.22° C | 48% | 1006.3 hPa | - | 1.34 m/s, 102° | - | - |
| 1778018364 | 27.78° C | 46% | 1006.3 hPa | - | 1.34 m/s, 95° | - | - |
| 1778017763 | 27.78° C | 44% | 1006.3 hPa | - | 2.24 m/s, 98° | - | - |
| 1778017162 | 28.33° C | 41% | 1006.3 hPa | - | 0.89 m/s, 127° | - | - |
| 1778016562 | 29.44° C | 42% | 1006.3 hPa | - | 0.89 m/s, 9° | - | - |
| 1778015961 | 28.89° C | 44% | 1005.9 hPa | - | 1.34 m/s, 315° | - | - |
| 1778015361 | 28.89° C | 44% | 1005.9 hPa | - | 1.34 m/s, 48° | - | - |
| 1778014760 | 29.44° C | 43% | 1006.3 hPa | - | 0.45 m/s, 68° | - | - |
| 1778014160 | 28.33° C | 43% | 1006.3 hPa | - | 0.89 m/s, 29° | - | - |
| 1778013559 | 28.33° C | 41% | 1006.3 hPa | - | 0.89 m/s, 65° | - | - |
| 1778012958 | 30° C | 41% | 1006.3 hPa | - | 0.89 m/s, 97° | - | - |
| 1778012358 | 29.44° C | 43% | 1006.3 hPa | - | 2.24 m/s, 81° | - | - |
| 1778011757 | 30° C | 40% | 1006.6 hPa | - | 0.89 m/s, 91° | - | - |
| 1778011157 | 28.89° C | 42% | 1006.6 hPa | - | 3.13 m/s, 61° | - | - |
* Rain since midnight (hover to see other rain measurements)
** Current wind speed in m/s (hover to see current wind gust speed)